SQ6ELQ-11 Weather Reports


Display with metric or nautical units.
time (UTC)temp
F
wind
direction
speed
MPH
gust
MPH
rain 1hr
in
rain 24hr
in
rain mn
in
humidity
%
barometer
mb
20260506011831 52 0 0.0 0.0 0.00 0.00 0.00 69 1006.3
20260506010025 52 0 0.0 0.0 0.00 0.00 0.00 66 1006.2
20260506004236 52 0 0.0 0.0 0.00 0.00 0.00 66 1006.2
20260506002311 52 0 0.0 0.0 0.00 0.00 0.00 66 1006.1
20260506000541 53 0 0.0 0.0 0.00 0.00 0.00 68 1006.4
20260505234848 53 0 0.0 0.0 0.00 0.00 0.00 66 1006.7
20260505233201 53 0 0.0 0.0 0.00 0.00 0.00 66 1006.8
20260505231321 53 0 0.0 0.0 0.00 0.00 0.00 67 1006.5
20260505225515 53 0 0.0 0.0 0.00 0.00 0.00 66 1006.6
20260505223721 54 0 0.0 0.0 0.00 0.00 0.00 66 1006.7
20260505222030 54 0 0.0 0.0 0.00 0.00 0.00 66 1006.9
20260505220211 54 0 0.0 0.0 0.00 0.00 0.00 65 1007.1
20260505214436 54 0 0.0 0.0 0.00 0.00 0.00 63 1007.2
20260505212653 55 0 0.0 0.0 0.00 0.00 0.00 63 1007.3
20260505211021 55 0 0.0 0.0 0.00 0.00 0.00 64 1007.4
20260505205207 57 0 0.0 0.0 0.00 0.00 0.00 62 1007.7
20260505203306 57 0 0.0 0.0 0.00 0.00 0.00 61 1007.6
20260505201431 58 0 0.0 0.0 0.00 0.00 0.00 59 1007.6
20260505195801 58 0 0.0 0.0 0.00 0.00 0.00 59 1007.6
20260505193941 59 0 0.0 0.0 0.00 0.00 0.00 59 1007.5
20260505192151 59 0 0.0 0.0 0.00 0.00 0.00 58 1007.6
20260505190426 59 0 0.0 0.0 0.00 0.00 0.00 57 1007.7
20260505184705 60 0 0.0 0.0 0.00 0.00 0.00 57 1007.6
20260505183015 61 0 0.0 0.0 0.00 0.00 0.00 54 1007.7
20260505181316 62 0 0.0 0.0 0.00 0.00 0.00 53 1007.7
20260505175551 62 0 0.0 0.0 0.00 0.00 0.00 52 1007.8
20260505173645 64 0 0.0 0.0 0.00 0.00 0.00 52 1008.0
20260505171813 65 0 0.0 0.0 0.00 0.00 0.00 50 1007.7
20260505165921 66 0 0.0 0.0 0.00 0.00 0.00 44 1007.5
20260505164010 71 0 0.0 0.0 0.00 0.00 0.00 30 1007.1
20260505162351 72 0 0.0 0.0 0.00 0.00 0.00 30 1007.1
20260505160550 73 0 0.0 0.0 0.00 0.00 0.00 29 1007.2
20260505152951 76 0 0.0 0.0 0.00 0.00 0.00 25 1007.0
20260505151211 76 0 0.0 0.0 0.00 0.00 0.00 26 1007.0
20260505124931 71 0 0.0 0.0 0.00 0.00 0.00 32 1007.9
20260505123240 74 0 0.0 0.0 0.00 0.00 0.00 28 1007.9
20260505121420 78 0 0.0 0.0 0.00 0.00 0.00 31 1007.8
20260505115726 75 0 0.0 0.0 0.00 0.00 0.00 32 1007.9
20260505113919 73 0 0.0 0.0 0.00 0.00 0.00 33 1008.1
20260505112236 74 0 0.0 0.0 0.00 0.00 0.00 31 1008.0
20260505110506 75 0 0.0 0.0 0.00 0.00 0.00 26 1008.3
20260505100741 72 0 0.0 0.0 0.00 0.00 0.00 31 1008.4
20260505094951 71 0 0.0 0.0 0.00 0.00 0.00 31 1008.6
20260505093210 70 0 0.0 0.0 0.00 0.00 0.00 32 1008.6
20260505091446 69 0 0.0 0.0 0.00 0.00 0.00 33 1008.7
20260505085756 67 0 0.0 0.0 0.00 0.00 0.00 34 1008.9
20260505083931 68 0 0.0 0.0 0.00 0.00 0.00 35 1009.0
20260505082141 67 0 0.0 0.0 0.00 0.00 0.00 36 1009.2
20260505080411 65 0 0.0 0.0 0.00 0.00 0.00 39 1009.5
20260505074616 64 0 0.0 0.0 0.00 0.00 0.00 42 1009.7
20260505072848 64 0 0.0 0.0 0.00 0.00 0.00 43 1009.8
20260505071111 64 0 0.0 0.0 0.00 0.00 0.00 43 1009.7
20260505065321 63 0 0.0 0.0 0.00 0.00 0.00 43 1009.7
20260505063611 62 0 0.0 0.0 0.00 0.00 0.00 45 1009.7
20260505061808 60 0 0.0 0.0 0.00 0.00 0.00 47 1009.8
20260505055946 59 0 0.0 0.0 0.00 0.00 0.00 50 1009.9
20260505054236 58 0 0.0 0.0 0.00 0.00 0.00 52 1009.9
20260505052406 57 0 0.0 0.0 0.00 0.00 0.00 53 1009.7
20260505050544 56 0 0.0 0.0 0.00 0.00 0.00 52 1010.0
20260505040906 54 0 0.0 0.0 0.00 0.00 0.00 53 1010.5
20260505035151 54 0 0.0 0.0 0.00 0.00 0.00 53 1010.6
20260505033341 54 0 0.0 0.0 0.00 0.00 0.00 53 1010.6
20260505031616 54 0 0.0 0.0 0.00 0.00 0.00 54 1010.6
20260505025801 55 0 0.0 0.0 0.00 0.00 0.00 55 1010.7
20260505023921 53 0 0.0 0.0 0.00 0.00 0.00 58 1010.9
20260505022131 51 0 0.0 0.0 0.00 0.00 0.00 65 1011.2
20260505020345 50 0 0.0 0.0 0.00 0.00 0.00 65 1011.5
20260505014536 50 0 0.0 0.0 0.00 0.00 0.00 64 1011.6
20260505012750 50 0 0.0 0.0 0.00 0.00 0.00 64 1011.7